TimeCET,TemperatureF,Dew PointF,Humidity,Sea Level PressureIn,VisibilityMPH,Wind Direction,Wind SpeedMPH,Gust SpeedMPH,PrecipitationIn,Events,Conditions,WindDirDegrees,DateUTC
12:20 AM,26.6,21.2,80,30.06,-9999.0,East,4.6,-,N/A,,Clear,80,2013-01-13 23:20:00
12:50 AM,24.8,21.2,86,30.06,-9999.0,Calm,Calm,-,N/A,,Clear,0,2013-01-13 23:50:00
1:00 AM,25,22,82,30.09,6,Calm,Calm,,,,Scattered Clouds,,2013-01-14 00:00:00
1:20 AM,23.0,19.4,86,30.06,5.6,WSW,2.3,-,N/A,,Partly Cloudy,250,2013-01-14 00:20:00
1:50 AM,24.8,21.2,86,30.06,5.6,SSW,2.3,-,N/A,,Partly Cloudy,210,2013-01-14 00:50:00
2:20 AM,23.0,19.4,86,30.06,5.6,SW,2.3,-,N/A,,Partly Cloudy,230,2013-01-14 01:20:00
2:50 AM,23.0,19.4,86,30.06,5.6,SW,2.3,-,N/A,,Partly Cloudy,230,2013-01-14 01:50:00
3:20 AM,23.0,19.4,86,30.06,5.0,SSW,2.3,-,N/A,,Partly Cloudy,210,2013-01-14 02:20:00
3:50 AM,23.0,21.2,93,30.06,5.0,SSW,2.3,-,N/A,,Partly Cloudy,200,2013-01-14 02:50:00
4:00 AM,23,20,85,30.06,5,SSW,2.2,,,,Scattered Clouds,200,2013-01-14 03:00:00
4:20 AM,23.0,19.4,86,30.04,5.0,SSE,2.3,-,N/A,,Partly Cloudy,160,2013-01-14 03:20:00
4:50 AM,23.0,19.4,86,30.04,5.0,SSW,3.5,-,N/A,,Partly Cloudy,210,2013-01-14 03:50:00
5:20 AM,23.0,19.4,86,30.01,5.0,Variable,2.3,-,N/A,,Partly Cloudy,0,2013-01-14 04:20:00
5:50 AM,23.0,19.4,86,30.01,5.0,SW,4.6,-,N/A,,Partly Cloudy,220,2013-01-14 04:50:00
6:20 AM,23.0,19.4,86,30.01,5.0,SSW,4.6,-,N/A,,Partly Cloudy,210,2013-01-14 05:20:00
6:50 AM,23.0,19.4,86,30.01,5.0,SW,6.9,-,N/A,,Partly Cloudy,220,2013-01-14 05:50:00
7:00 AM,23,19,78,30.02,5,SW,6.7,,,,Scattered Clouds,220,2013-01-14 06:00:00
7:20 AM,23.0,19.4,86,30.01,5.0,SW,8.1,-,N/A,,Partly Cloudy,220,2013-01-14 06:20:00
7:50 AM,23.0,19.4,86,30.01,5.0,South,3.5,-,N/A,,Partly Cloudy,180,2013-01-14 06:50:00
8:20 AM,23.0,19.4,86,30.01,3.7,South,5.8,-,N/A,,Partly Cloudy,190,2013-01-14 07:20:00
8:50 AM,23.0,19.4,86,30.01,3.7,South,6.9,-,N/A,,Partly Cloudy,170,2013-01-14 07:50:00
9:20 AM,24.8,19.4,80,29.98,4.3,South,5.8,-,N/A,,Partly Cloudy,170,2013-01-14 08:20:00
9:50 AM,24.8,21.2,86,29.98,5.6,South,6.9,-,N/A,,Scattered Clouds,180,2013-01-14 08:50:00
10:20 AM,26.6,21.2,80,29.98,5.6,SSW,9.2,-,N/A,,Scattered Clouds,200,2013-01-14 09:20:00
10:50 AM,26.6,23.0,86,29.98,5.6,South,8.1,-,N/A,,Mostly Cloudy,190,2013-01-14 09:50:00
11:20 AM,28.4,23.0,80,29.98,5.6,SSW,8.1,-,N/A,,Mostly Cloudy,200,2013-01-14 10:20:00
11:50 AM,28.4,24.8,86,29.95,6.2,SSW,9.2,-,N/A,,Mostly Cloudy,200,2013-01-14 10:50:00
12:20 PM,30.2,23.0,75,29.95,6.2,SSW,10.4,-,N/A,,Mostly Cloudy,210,2013-01-14 11:20:00
12:50 PM,30.2,24.8,80,29.92,6.2,SSW,10.4,-,N/A,,Mostly Cloudy,200,2013-01-14 11:50:00
1:00 PM,30,24,70,29.94,7,SSW,11.2,,,,Mostly Cloudy,200,2013-01-14 12:00:00
1:20 PM,30.2,24.8,80,29.92,6.2,SSW,12.7,-,N/A,,Mostly Cloudy,210,2013-01-14 12:20:00
1:50 PM,30.2,24.8,80,29.89,6.2,SSW,12.7,-,N/A,,Mostly Cloudy,200,2013-01-14 12:50:00
2:20 PM,32.0,24.8,75,29.89,6.2,SSW,13.8,-,N/A,,Mostly Cloudy,200,2013-01-14 13:20:00
2:50 PM,32.0,24.8,75,29.86,6.2,South,10.4,-,N/A,,Mostly Cloudy,190,2013-01-14 13:50:00
3:20 PM,32.0,23.0,69,29.86,6.2,SSW,11.5,-,N/A,Snow,Light Snow,200,2013-01-14 14:20:00
3:50 PM,32.0,23.0,69,29.86,6.2,South,10.4,-,N/A,,Mostly Cloudy,170,2013-01-14 14:50:00
4:00 PM,31,24,65,29.86,7,South,11.2,,,Snow,Light Snow,170,2013-01-14 15:00:00
4:20 PM,32.0,23.0,69,29.83,6.2,South,12.7,-,N/A,,Mostly Cloudy,170,2013-01-14 15:20:00
4:50 PM,30.2,23.0,75,29.80,6.2,SSE,13.8,-,N/A,,Mostly Cloudy,160,2013-01-14 15:50:00
5:20 PM,30.2,23.0,75,29.80,6.2,SSE,15.0,-,N/A,,Mostly Cloudy,160,2013-01-14 16:20:00
5:50 PM,30.2,23.0,75,29.77,3.1,SSE,15.0,-,N/A,Snow,Light Snow,160,2013-01-14 16:50:00
6:20 PM,30.2,24.8,80,29.77,2.5,South,16.1,-,N/A,Snow,Light Snow,170,2013-01-14 17:20:00
6:50 PM,30.2,24.8,80,29.74,1.9,SSE,16.1,-,N/A,Snow,Light Snow,160,2013-01-14 17:50:00
7:00 PM,29,25,80,29.75,2,SSE,15.7,,,Snow,Light Snow,160,2013-01-14 18:00:00
7:20 PM,28.4,24.8,86,29.71,1.1,SSE,17.3,-,N/A,Snow,Light Snow,160,2013-01-14 18:20:00
7:50 PM,28.4,26.6,93,29.68,0.6,SSE,17.3,-,N/A,Snow,Snow,160,2013-01-14 18:50:00
8:20 PM,28.4,26.6,93,29.68,0.6,SSE,19.6,-,N/A,Snow,Snow,160,2013-01-14 19:20:00
8:50 PM,28.4,26.6,93,29.65,0.5,SSE,18.4,-,N/A,Snow,Snow,160,2013-01-14 19:50:00
9:20 PM,28.4,26.6,93,29.62,0.6,SSE,18.4,-,N/A,Snow,Snow,150,2013-01-14 20:20:00
9:50 PM,28.4,26.6,93,29.59,0.6,SSE,18.4,-,N/A,Snow,Snow,160,2013-01-14 20:50:00
10:00 PM,29,26,82,29.62,1,SSE,17.9,,,Snow,Snow,160,2013-01-14 21:00:00
10:20 PM,28.4,26.6,93,29.59,0.9,SSE,18.4,-,N/A,Snow,Light Snow,160,2013-01-14 21:20:00
10:50 PM,30.2,26.6,86,29.56,2.5,South,15.0,-,N/A,,Mostly Cloudy,170,2013-01-14 21:50:00
11:20 PM,30.2,26.6,86,29.53,4.3,South,11.5,-,N/A,,Mostly Cloudy,180,2013-01-14 22:20:00
11:50 PM,33.8,28.4,81,29.53,6.2,SSW,12.7,-,N/A,,Mostly Cloudy,210,2013-01-14 22:50:00